Hays, KS

5:28 PM CST on February 27, 2017 (GMT -0600)
Hays Regional

Weather History for KHYS - February, 2014

Change the Weather History Date:

Saturday, February 15, 2014

  Actual Average Record
Temperature  
Mean Temperature 45 °F -  
Max Temperature 60 °F 45 °F 69 °F (2000)
Min Temperature 30 °F 22 °F -5 °F (2007)
Degree Days  
Heating Degree Days 20    
Moisture  
Dew Point 30 °F    
Average Humidity 64    
Maximum Humidity 87    
Minimum Humidity 39    
Precipitation  
Precipitation 0.00 in - - ()
Sea Level Pressure  
Sea Level Pressure 29.94 in    
Wind  
Wind Speed 12 mph (West)    
Max Wind Speed 24 mph    
Max Gust Speed 26 mph    
Visibility 10 miles    
Events      
Averages and records for this station are not official NWS values.
T = Trace of Precipitation, MM = Missing Value Source: NWS Daily Summary

Daily Weather History Graph

Daily Weather History Graph

Search for Another Location

Airport or City:

Trip Planner

Search our weather history database for the weather conditions in past years. The results will help you decide how hot, cold, wet, or windy it might be!

Date:

Astronomy

Feb. 15, 2014 Rise Set
Actual Time 7:28 AM CST 6:14 PM CST
Civil Twilight 7:00 AM CST 6:42 PM CST
Nautical Twilight 6:29 AM CST 7:13 PM CST
Astronomical Twilight 5:58 AM CST 7:44 PM CST
Moon 7:15 PM CST (2/15) 7:28 AM CST (2/15)
Length of Visible Light 11h 41m
Length of Day
10h 46m
Waxing Gibbous, 99% of the Moon is Illuminated
Feb 15
Waxing Gibbous
Feb 22
Last Quarter
Mar 1
New
Mar 8
First Quarter
Mar 16
Full

Hourly Weather History & Observations

Time (CST) Temp. Windchill Dew Point Humidity Pressure Visibility Wind Dir Wind Speed Gust Speed Precip Events Conditions
12:15 AM 33.8 °F 25.8 °F 28.4 °F 81% 29.99 in 10.0 mi SSE 10.4 mph - N/A   Overcast
12:35 AM 33.8 °F 25.8 °F 28.4 °F 81% 29.99 in 10.0 mi SSE 10.4 mph - N/A   Overcast
12:55 AM 33.8 °F 26.4 °F 28.4 °F 81% 29.99 in 10.0 mi SSE 9.2 mph - N/A   Overcast
1:15 AM 33.8 °F 25.8 °F 28.4 °F 81% 29.98 in 10.0 mi SSE 10.4 mph - N/A   Overcast
1:35 AM 33.8 °F 24.8 °F 28.4 °F 81% 29.97 in 10.0 mi SSE 12.7 mph - N/A   Overcast
1:55 AM 33.8 °F 24.8 °F 28.4 °F 81% 29.95 in 10.0 mi SSE 12.7 mph - N/A   Overcast
2:15 AM 33.8 °F 25.3 °F 26.6 °F 75% 29.93 in 10.0 mi SSE 11.5 mph - N/A   Mostly Cloudy
2:35 AM 32.0 °F 23.6 °F 26.6 °F 80% 29.93 in 10.0 mi SSE 10.4 mph - N/A   Partly Cloudy
2:55 AM 30.2 °F 22.6 °F 26.6 °F 86% 29.92 in 10.0 mi South 8.1 mph - N/A   Partly Cloudy
3:15 AM 32.0 °F 24.2 °F 28.4 °F 87% 29.92 in 10.0 mi South 9.2 mph - N/A   Mostly Cloudy
3:35 AM 33.8 °F 25.3 °F 28.4 °F 81% 29.91 in 10.0 mi South 11.5 mph - N/A   Overcast
3:55 AM 33.8 °F 24.3 °F 30.2 °F 87% 29.89 in 10.0 mi South 13.8 mph - N/A   Overcast
4:15 AM 33.8 °F 24.8 °F 28.4 °F 81% 29.89 in 10.0 mi South 12.7 mph - N/A   Overcast
4:35 AM 33.8 °F 25.8 °F 28.4 °F 81% 29.89 in 10.0 mi South 10.4 mph - N/A   Overcast
4:55 AM 33.8 °F 23.9 °F 28.4 °F 81% 29.88 in 10.0 mi South 15.0 mph - N/A   Overcast
5:15 AM 33.8 °F 23.9 °F 28.4 °F 81% 29.87 in 10.0 mi South 15.0 mph - N/A   Overcast
5:35 AM 33.8 °F 24.3 °F 28.4 °F 81% 29.86 in 10.0 mi South 13.8 mph - N/A   Overcast
5:55 AM 33.8 °F 23.5 °F 28.4 °F 81% 29.85 in 10.0 mi South 16.1 mph - N/A   Overcast
6:15 AM 33.8 °F 23.9 °F 28.4 °F 81% 29.83 in 10.0 mi South 15.0 mph - N/A   Overcast
6:35 AM 33.8 °F 23.2 °F 26.6 °F 75% 29.82 in 10.0 mi South 17.3 mph - N/A   Mostly Cloudy
6:55 AM 33.8 °F 23.5 °F 26.6 °F 75% 29.80 in 10.0 mi South 16.1 mph 20.7 mph N/A   Mostly Cloudy
7:15 AM 33.8 °F 23.5 °F 26.6 °F 75% 29.80 in 10.0 mi South 16.1 mph 23.0 mph N/A   Partly Cloudy
7:35 AM 33.8 °F 24.3 °F 26.6 °F 75% 29.80 in 10.0 mi South 13.8 mph 20.7 mph N/A   Partly Cloudy
7:55 AM 33.8 °F 27.0 °F 26.6 °F 75% 29.80 in 10.0 mi South 8.1 mph - N/A   Scattered Clouds
8:15 AM 35.6 °F 27.5 °F 26.6 °F 70% 29.80 in 10.0 mi SSW 11.5 mph - N/A   Scattered Clouds
8:35 AM 37.4 °F 28.9 °F 26.6 °F 65% 29.79 in 10.0 mi SSW 13.8 mph 20.7 mph N/A   Clear
8:55 AM 39.2 °F 29.8 °F 26.6 °F 61% 29.79 in 10.0 mi SSW 18.4 mph - N/A   Clear
9:15 AM 39.2 °F 31.2 °F 26.6 °F 61% 29.81 in 10.0 mi SW 13.8 mph 19.6 mph N/A   Clear
9:35 AM 42.8 °F 34.5 °F 28.4 °F 57% 29.82 in 10.0 mi SW 18.4 mph 24.2 mph N/A   Partly Cloudy
9:55 AM 42.8 °F 35.4 °F 28.4 °F 57% 29.84 in 10.0 mi WSW 15.0 mph - N/A   Partly Cloudy
10:15 AM 44.6 °F 37.8 °F 30.2 °F 57% 29.84 in 10.0 mi West 15.0 mph - N/A   Partly Cloudy
10:35 AM 46.4 °F 40.4 °F 30.2 °F 53% 29.85 in 10.0 mi West 13.8 mph - N/A   Clear
10:55 AM 48.2 °F - 32.0 °F 54% 29.86 in 10.0 mi NW 17.3 mph - N/A   Clear
11:15 AM 50.0 °F - 32.0 °F 50% 29.89 in 10.0 mi NW 19.6 mph 25.3 mph N/A   Clear
11:35 AM 51.8 °F - 33.8 °F 50% 29.90 in 10.0 mi North 21.9 mph 26.5 mph N/A   Clear
11:55 AM 51.8 °F - 33.8 °F 50% 29.91 in 10.0 mi North 24.2 mph - N/A   Clear
12:15 PM 53.6 °F - 35.6 °F 51% 29.91 in 10.0 mi North 19.6 mph - N/A   Partly Cloudy
12:35 PM 51.8 °F - 35.6 °F 54% 29.90 in 10.0 mi North 19.6 mph - N/A   Scattered Clouds
12:55 PM 53.6 °F - 35.6 °F 51% 29.92 in 10.0 mi North 19.6 mph - N/A   Clear
1:15 PM 53.6 °F - 35.6 °F 51% 29.92 in 10.0 mi North 17.3 mph 20.7 mph N/A   Clear
1:35 PM 55.4 °F - 37.4 °F 51% 29.92 in 10.0 mi North 15.0 mph - N/A   Clear
1:55 PM 55.4 °F - 35.6 °F 47% 29.92 in 10.0 mi NNW 12.7 mph 17.3 mph N/A   Clear
2:15 PM 57.2 °F - 35.6 °F 44% 29.92 in 10.0 mi NNW 10.4 mph 16.1 mph N/A   Clear
2:35 PM 57.2 °F - 37.4 °F 48% 29.93 in 10.0 mi NW 10.4 mph - N/A   Clear
2:55 PM 59.0 °F - 35.6 °F 42% 29.93 in 10.0 mi NW 13.8 mph - N/A   Clear
3:15 PM 60.8 °F - 35.6 °F 39% 29.94 in 10.0 mi NNW 18.4 mph 25.3 mph N/A   Clear
3:35 PM 60.8 °F - 35.6 °F 39% 29.94 in 10.0 mi NNW 21.9 mph 25.3 mph N/A   Clear
3:55 PM 59.0 °F - 33.8 °F 39% 29.96 in 10.0 mi NNW 18.4 mph 24.2 mph N/A   Clear
4:15 PM 57.2 °F - 33.8 °F 41% 29.97 in 10.0 mi NNW 20.7 mph 25.3 mph N/A   Clear
4:35 PM 57.2 °F - 33.8 °F 41% 29.98 in 10.0 mi NNW 17.3 mph - N/A   Clear
4:55 PM 57.2 °F - 33.8 °F 41% 29.99 in 10.0 mi NNW 15.0 mph - N/A   Clear
5:15 PM 55.4 °F - 32.0 °F 41% 29.99 in 10.0 mi NW 15.0 mph 19.6 mph N/A   Clear
5:35 PM 55.4 °F - 32.0 °F 41% 30.00 in 10.0 mi NW 12.7 mph - N/A   Clear
5:55 PM 53.6 °F - 32.0 °F 44% 30.00 in 10.0 mi NW 8.1 mph - N/A   Clear
6:15 PM 51.8 °F - 32.0 °F 47% 30.01 in 10.0 mi NW 9.2 mph - N/A   Clear
6:35 PM 48.2 °F - 30.2 °F 50% 30.02 in 10.0 mi NNW 9.2 mph - N/A   Clear
6:55 PM 46.4 °F 42.4 °F 30.2 °F 53% 30.04 in 10.0 mi NW 8.1 mph - N/A   Clear
7:15 PM 42.8 °F 39.3 °F 30.2 °F 61% 30.05 in 10.0 mi WSW 5.8 mph - N/A   Clear
7:35 PM 41.0 °F 35.8 °F 30.2 °F 65% 30.07 in 10.0 mi West 8.1 mph - N/A   Clear
7:55 PM 42.8 °F 37.0 °F 30.2 °F 61% 30.06 in 10.0 mi NNW 10.4 mph - N/A   Clear
8:15 PM 41.0 °F 38.0 °F 30.2 °F 65% 30.07 in 10.0 mi West 4.6 mph - N/A   Clear
8:35 PM 39.2 °F 34.2 °F 30.2 °F 70% 30.07 in 10.0 mi NW 6.9 mph - N/A   Clear
8:55 PM 37.4 °F 32.1 °F 28.4 °F 70% 30.08 in 10.0 mi West 6.9 mph - N/A   Clear
9:15 PM 39.2 °F 33.6 °F 30.2 °F 70% 30.08 in 10.0 mi NW 8.1 mph - N/A   Clear
9:35 PM 37.4 °F 32.1 °F 28.4 °F 70% 30.09 in 10.0 mi NW 6.9 mph - N/A   Clear
9:55 PM 37.4 °F 33.8 °F 28.4 °F 70% 30.08 in 10.0 mi WNW 4.6 mph - N/A   Clear
10:15 PM 35.6 °F 29.2 °F 28.4 °F 75% 30.07 in 10.0 mi NNW 8.1 mph - N/A   Clear
10:35 PM 35.6 °F 29.2 °F 28.4 °F 75% 30.08 in 10.0 mi NNW 8.1 mph - N/A   Clear
10:55 PM 33.8 °F 27.7 °F 28.4 °F 81% 30.07 in 10.0 mi NW 6.9 mph - N/A   Clear
11:15 PM 33.8 °F 27.0 °F 26.6 °F 75% 30.08 in 10.0 mi West 8.1 mph - N/A   Clear
11:35 PM 30.2 °F 21.9 °F 26.6 °F 86% 30.09 in 10.0 mi WNW 9.2 mph - N/A   Clear
11:55 PM 33.8 °F 26.4 °F 26.6 °F 75% 30.09 in 10.0 mi NW 9.2 mph - N/A   Clear